User: anonymous   Login
Location: Unspecified
(0.0000°N, 0.0000°E)
Time: 14:49:34
(UTC+00:00)
Language:

Resurs 1-4 - Orbit

View from above orbital plane
View from above orbital plane
View from above satellite
View from above satellite

Ground track
Ground track

The orbit data is extracted from the following two-line orbital elements,

1 25394U 98043A   17205.92576301 -.00000074 +00000-0 -13648-4 0  9994
2 25394 098.5615 148.6453 0001453 144.6592 215.4684 14.24456580989717
Epoch (UTC): 24 July 2017 22:13:05
Eccentricity: 0.0001453
inclination: 98.5615°
perigee height: 809 km
apogee height: 811 km
right ascension of ascending node: 148.6453°
argument of perigee: 144.6592°
revolutions per day: 14.24456580
mean anomaly at epoch: 215.4684°
orbit number at epoch: 98971

The dashed part of the orbit path shows where the satellite is in the earth's shadow,  

DLR